Zurück zum Katalog

SL-16 R/B

AktivLEO
NORAD 28353·ROCKET BODY·🇷🇺 Russia

Gestartet Jun 10, 2004 von Baikonur Cosmodrome

Loading…

Nächste Überflüge (nächste 24 Stunden)

TLE

AktuellSource: Space-Track

Epoche: Sep 14, 2026, 06:11 UTC

1 28353U 04021B   26257.25806255 -.00000257  00000-0 -10884-3 0  9993
2 28353  71.0002 196.7583 0002950 130.5879 229.5501 14.14618644149503

Verfolge SL-16 R/B in Echtzeit mit AllMySat

Download on the App Store